OpenBCM V1.08-5-g2f4a (Linux)

Packet Radio Mailbox

IZ3LSV

[San Dona' di P. JN]

 Login: GUEST





  
CX2SA  > KEPS     09.08.13 03:42l 458 Lines 12068 Bytes #999 (0) @ WW
BID : ORB13220.M
Read: GUEST
Subj: Orbital Elements  13220.MISC
Path: IZ3LSV<IQ5KG<IK1NHL<CX2SA
Sent: 130809/0143Z @:CX2SA.SAL.URY.SA #:9508 [Salto] FBB7.00e $:ORB13220.M
From: CX2SA@CX2SA.SAL.URY.SA
To  : KEPS@AMSAT


HR AMSAT ORBITAL ELEMENTS FOR MANNED AND MISCELLANEOUS SATELLITES
FROM WA5QGD FORT WORTH,TX August 8, 2013
BID: ORB13220.M
TO ALL RADIO AMATEURS BT

Satellite: HUBBLE
Catalog number: 20580
Epoch time:      13220.41394208
Element set:     299
Inclination:      028.4709 deg
RA of node:       290.4198 deg
Eccentricity:    0.0003520
Arg of perigee:   181.9712 deg
Mean anomaly:     178.0797 deg
Mean motion:   15.03821998 rev/day
Decay rate:      1.390e-05 rev/day^2
Epoch rev:            7756
Checksum:              307

Satellite: ISS
Catalog number: 25544
Epoch time:      13220.77567130
Element set:     353
Inclination:      051.6489 deg
RA of node:       207.7649 deg
Eccentricity:    0.0003610
Arg of perigee:   287.7002 deg
Mean anomaly:     069.2197 deg
Mean motion:   15.50212290 rev/day
Decay rate:      4.883e-05 rev/day^2
Epoch rev:           84285
Checksum:              298

Satellite: CO-58
Catalog number: 28895
Epoch time:      13220.60560967
Element set:     542
Inclination:      097.8645 deg
RA of node:       073.3562 deg
Eccentricity:    0.0016111
Arg of perigee:   276.5474 deg
Mean anomaly:     083.3893 deg
Mean motion:   14.61187261 rev/day
Decay rate:       3.85e-06 rev/day^2
Epoch rev:           41459
Checksum:              333

Satellite: FALCON
Catalog number: 30776
Epoch time:      13220.14580193
Element set:     669
Inclination:      035.4296 deg
RA of node:       243.2070 deg
Eccentricity:    0.0000403
Arg of perigee:   004.8869 deg
Mean anomaly:     060.2708 deg
Mean motion:   15.11090934 rev/day
Decay rate:      2.906e-05 rev/day^2
Epoch rev:           35328
Checksum:              274

Satellite: MAST
Catalog number: 31126
Epoch time:      13220.77175591
Element set:     822
Inclination:      097.8849 deg
RA of node:       213.7035 deg
Eccentricity:    0.0091897
Arg of perigee:   248.2595 deg
Mean anomaly:     189.5704 deg
Mean motion:   14.54638764 rev/day
Decay rate:       2.03e-06 rev/day^2
Epoch rev:           33496
Checksum:              331

Satellite: CAPE1
Catalog number: 31130
Epoch time:      13220.84505613
Element set:     825
Inclination:      097.9024 deg
RA of node:       210.1482 deg
Eccentricity:    0.0099006
Arg of perigee:   264.2585 deg
Mean anomaly:     094.7318 deg
Mean motion:   14.53576880 rev/day
Decay rate:       2.53e-06 rev/day^2
Epoch rev:           33442
Checksum:              283

Satellite: COMPASS
Catalog number: 32787
Epoch time:      13220.67257427
Element set:     696
Inclination:      097.7478 deg
RA of node:       277.8706 deg
Eccentricity:    0.0016144
Arg of perigee:   129.5352 deg
Mean anomaly:     230.7293 deg
Mean motion:   14.85717915 rev/day
Decay rate:      1.323e-05 rev/day^2
Epoch rev:           28575
Checksum:              336

Satellite: AAUSAT2
Catalog number: 32788
Epoch time:      13220.73188452
Element set:     681
Inclination:      097.7487 deg
RA of node:       278.6005 deg
Eccentricity:    0.0015668
Arg of perigee:   128.7436 deg
Mean anomaly:     231.5183 deg
Mean motion:   14.86197321 rev/day
Decay rate:      1.496e-05 rev/day^2
Epoch rev:           28580
Checksum:              334

Satellite: DO-64
Catalog number: 32789
Epoch time:      13220.80939169
Element set:     711
Inclination:      097.7644 deg
RA of node:       282.7682 deg
Eccentricity:    0.0015160
Arg of perigee:   121.2685 deg
Mean anomaly:     332.1101 deg
Mean motion:   14.88979447 rev/day
Decay rate:      2.793e-05 rev/day^2
Epoch rev:           28595
Checksum:              342

Satellite: CO-66
Catalog number: 32791
Epoch time:      13220.13508794
Element set:     674
Inclination:      097.7479 deg
RA of node:       276.6414 deg
Eccentricity:    0.0016569
Arg of perigee:   132.5275 deg
Mean anomaly:     261.2882 deg
Mean motion:   14.84812579 rev/day
Decay rate:      1.358e-05 rev/day^2
Epoch rev:           28558
Checksum:              353

Satellite: RS-30
Catalog number: 32953
Epoch time:      13220.86046492
Element set:     103
Inclination:      082.4976 deg
RA of node:       035.4284 deg
Eccentricity:    0.0019529
Arg of perigee:   116.3252 deg
Mean anomaly:     243.9838 deg
Mean motion:   12.43035841 rev/day
Decay rate:        1.0e-07 rev/day^2
Epoch rev:           23645
Checksum:              284

Satellite: METEOR-M
Catalog number: 35865
Epoch time:      13220.72099099
Element set:     697
Inclination:      098.5984 deg
RA of node:       271.8432 deg
Eccentricity:    0.0001810
Arg of perigee:   299.5482 deg
Mean anomaly:     060.5515 deg
Mean motion:   14.21890788 rev/day
Decay rate:       -1.9e-07 rev/day^2
Epoch rev:           20193
Checksum:              328

Satellite: RS-38
Catalog number: 35869
Epoch time:      13220.67482653
Element set:     652
Inclination:      098.5932 deg
RA of node:       271.6991 deg
Eccentricity:    0.0003859
Arg of perigee:   287.5210 deg
Mean anomaly:     072.5545 deg
Mean motion:   14.22139497 rev/day
Decay rate:        1.7e-07 rev/day^2
Epoch rev:           20195
Checksum:              331

Satellite: JUGNU
Catalog number: 37839
Epoch time:      13220.74656578
Element set:     437
Inclination:      019.9621 deg
RA of node:       348.3168 deg
Eccentricity:    0.0018899
Arg of perigee:   141.7645 deg
Mean anomaly:     010.5966 deg
Mean motion:   14.12171218 rev/day
Decay rate:       3.75e-06 rev/day^2
Epoch rev:            9433
Checksum:              322

Satellite: SRMSAT
Catalog number: 37841
Epoch time:      13219.81528571
Element set:     438
Inclination:      019.9728 deg
RA of node:       007.0359 deg
Eccentricity:    0.0011980
Arg of perigee:   082.4994 deg
Mean anomaly:     069.0112 deg
Mean motion:   14.10239088 rev/day
Decay rate:       3.47e-06 rev/day^2
Epoch rev:            9407
Checksum:              304

Satellite: RAX-2
Catalog number: 37853
Epoch time:      13220.17433944
Element set:     562
Inclination:      101.7045 deg
RA of node:       097.9150 deg
Eccentricity:    0.0233589
Arg of perigee:   238.3535 deg
Mean anomaly:     276.4902 deg
Mean motion:   14.84028805 rev/day
Decay rate:      2.340e-05 rev/day^2
Epoch rev:            9615
Checksum:              301

Satellite: AUBIESAT
Catalog number: 37854
Epoch time:      13220.62559480
Element set:     554
Inclination:      101.7079 deg
RA of node:       099.5542 deg
Eccentricity:    0.0233305
Arg of perigee:   235.5219 deg
Mean anomaly:     178.0035 deg
Mean motion:   14.84783900 rev/day
Decay rate:      2.345e-05 rev/day^2
Epoch rev:            9624
Checksum:              301

Satellite: HRBE
Catalog number: 37855
Epoch time:      13219.69455355
Element set:     559
Inclination:      101.7082 deg
RA of node:       097.9108 deg
Eccentricity:    0.0234465
Arg of perigee:   238.7555 deg
Mean anomaly:     153.4882 deg
Mean motion:   14.84421823 rev/day
Decay rate:      2.054e-05 rev/day^2
Epoch rev:            9609
Checksum:              328

Satellite: RS-39
Catalog number: 38051
Epoch time:      13220.85663432
Element set:     679
Inclination:      051.6369 deg
RA of node:       316.0817 deg
Eccentricity:    0.0011639
Arg of perigee:   095.8415 deg
Mean anomaly:     006.2427 deg
Mean motion:   15.34060575 rev/day
Decay rate:     1.3123e-04 rev/day^2
Epoch rev:            8586
Checksum:              306

Satellite: E-STAR
Catalog number: 38079
Epoch time:      13220.65602235
Element set:     343
Inclination:      069.4739 deg
RA of node:       056.3317 deg
Eccentricity:    0.0589331
Arg of perigee:   067.2689 deg
Mean anomaly:     357.5057 deg
Mean motion:   14.51884570 rev/day
Decay rate:     4.7818e-04 rev/day^2
Epoch rev:            7734
Checksum:              336

Satellite: GOLIAT
Catalog number: 38085
Epoch time:      13220.59478000
Element set:     275
Inclination:      069.4723 deg
RA of node:       059.0880 deg
Eccentricity:    0.0599501
Arg of perigee:   068.7094 deg
Mean anomaly:     297.6934 deg
Mean motion:   14.49482919 rev/day
Decay rate:     4.3011e-04 rev/day^2
Epoch rev:            7726
Checksum:              332

Satellite: HORYU-2
Catalog number: 38340
Epoch time:      13219.86753513
Element set:     569
Inclination:      098.2193 deg
RA of node:       167.9810 deg
Eccentricity:    0.0013732
Arg of perigee:   088.5727 deg
Mean anomaly:     271.7047 deg
Mean motion:   14.71067612 rev/day
Decay rate:      1.037e-05 rev/day^2
Epoch rev:            6571
Checksum:              313

Satellite: RS-40
Catalog number: 38736
Epoch time:      13220.71851010
Element set:     340
Inclination:      082.4812 deg
RA of node:       122.3829 deg
Eccentricity:    0.0020155
Arg of perigee:   210.3684 deg
Mean anomaly:     149.6229 deg
Mean motion:   12.42869739 rev/day
Decay rate:        1.0e-07 rev/day^2
Epoch rev:            4677
Checksum:              278

Satellite: PROITERES
Catalog number: 38756
Epoch time:      13220.85082024
Element set:      12
Inclination:      098.2505 deg
RA of node:       298.8565 deg
Eccentricity:    0.0011438
Arg of perigee:   303.0120 deg
Mean anomaly:     056.9982 deg
Mean motion:   14.74289903 rev/day
Decay rate:       3.59e-06 rev/day^2
Epoch rev:            4915
Checksum:              298

Satellite: RAIKO
Catalog number: 38852
Epoch time:      13218.07382584
Element set:     340
Inclination:      051.6160 deg
RA of node:       184.0336 deg
Eccentricity:    0.0004489
Arg of perigee:   261.9162 deg
Mean anomaly:     100.6538 deg
Mean motion:   16.48474690 rev/day
Decay rate:  2.4681979e-01 rev/day^2
Epoch rev:            4784
Checksum:              326

